[[{"header":{"parameterUnit":"m.s-1","parameterCategory":1,"la1":30.2991,"la2":30.254,"lo1":-89.0895,"lo2":-89.0444,"dy":0.0017,"dx":0.0017,"nx":28,"ny":28,"refTime":"2024-04-07T21:00:00:Z","depth":0,"parameterNumber":2,"parameterNumberName":"U-component_of_WINDS"},"data":[0,0,0,0,0,0,0,0,0,0,0,0,0,0,0,0,0,0,0,0,0,0,0,0,0,0,0,0,0,0,0,0,0,0,0,0,0,0,0,0,0,0,0,0,0,0,0,0,0,0,0,0,0,0,0,0,0,0,-5.2646,-5.2647,0,-5.2755,-5.2756,-5.2757,-5.2764,-5.2763,-5.2761,-5.276,-5.2868,-5.2872,-5.2876,0,0,0,0,0,0,0,0,0,0,0,0,0,-5.244,-5.2444,-5.2646,-5.2647,-5.2649,-5.2755,-5.2756,-5.2757,-5.2764,-5.2763,-5.2761,-5.276,-5.2866,-5.2871,-5.2876,0,0,0,0,0,0,0,0,0,0,0,0,0,-5.2537,-5.2445,-5.2646,-5.2665,-5.2668,-5.2754,-5.2756,-5.2758,-5.2764,-5.2763,-5.2761,-5.2759,-5.2865,-5.2871,-5.2877,-5.295,0,0,-5.2895,-5.2897,0,0,0,0,0,0,0,0,-5.2532,-5.2545,-5.2661,-5.2664,-5.2667,-5.2744,-5.2723,-5.2822,-5.2765,-5.2728,-5.276,-5.2758,-5.2828,-5.2837,-5.2861,-5.2955,-5.296,-5.2895,-5.2899,-5.2902,-5.2903,0,0,0,0,0,0,0,-5.2525,-5.254,-5.2689,-5.2662,-5.2666,-5.2667,-5.2679,-5.2742,-5.2786,-5.2731,-5.2731,-5.2744,-5.2829,-5.2855,-5.2864,-5.2962,-5.2895,-5.2901,-5.2904,-5.2907,-5.312,-5.3122,0,0,0,0,0,0,-5.2515,-5.2535,-5.2685,-5.2692,-5.2594,-5.2672,-5.2685,-5.2721,-5.2786,-5.2794,-5.2746,-5.2744,-5.2846,-5.2857,-5.2867,-5.2956,-5.2902,-5.2907,-5.2911,-5.3118,-5.312,-5.3122,0,0,0,0,0,0,-5.2511,-5.2529,-5.2681,-5.2614,-5.2633,-5.2678,-5.2718,-5.2724,-5.275,-5.2797,-5.2805,-5.2764,-5.2845,-5.2859,-5.2929,-5.296,-5.291,-5.2915,-5.3115,-5.3118,-5.3121,-5.3134,0,0,0,0,0,0,-5.2505,-5.2527,-5.2556,-5.2614,-5.2637,-5.2742,-5.272,-5.2728,-5.2761,-5.276,-5.2817,-5.2824,-5.2844,-5.292,-5.2935,-5.2967,-5.292,-5.3113,-5.3117,-5.312,-5.3131,-5.3138,-5.3143,0,0,0,0,0,-5.2498,-5.2555,-5.2558,-5.2576,-5.2675,-5.2744,-5.2757,-5.278,-5.2764,-5.2792,-5.2823,-5.2823,-5.2955,-5.2928,-5.2944,-5.2978,-5.3111,-5.3116,-5.312,-5.3129,-5.3136,-5.3143,0,0,0,0,0,0,-5.2498,-5.2563,-5.2567,-5.2645,-5.2689,-5.2745,-5.2782,-5.2787,-5.2836,-5.2833,-5.2858,-5.2871,-5.294,-5.2967,-5.2935,-5.3052,-5.3031,-5.3039,-5.3032,-5.3039,-5.3045,-5.3035,-5.2925,0,0,0,0,0,-5.2508,-5.2561,-5.2614,-5.2678,-5.27,-5.2738,-5.2769,-5.2783,-5.2829,-5.2847,-5.2883,-5.2926,-5.2977,-5.301,-5.306,-5.3137,-5.3148,-5.3168,-5.3174,-5.3178,-5.3184,-5.3224,-5.3233,-5.3138,-5.3138,-5.3138,0,0,-5.2528,-5.257,-5.2601,-5.2679,-5.2715,-5.2767,-5.2753,-5.2809,-5.2847,-5.2855,-5.2923,-5.2951,-5.3002,-5.3075,-5.3109,-5.3099,-5.3214,-5.3184,-5.3188,-5.3191,-5.323,-5.3239,-5.3247,-5.3141,-5.314,-5.314,0,0,-5.259,-5.2628,-5.2685,-5.2721,-5.2776,-5.28,-5.2814,-5.287,-5.2888,-5.2958,-5.2964,-5.301,-5.3098,-5.3133,-5.3163,-5.3238,-5.3239,-5.3254,-5.3282,-5.3321,-5.3329,-5.3335,-5.336,-5.3369,-5.326,-5.326,-5.326,0,-5.2607,-5.2687,-5.2713,-5.2768,-5.2802,-5.2813,-5.2869,-5.2903,-5.2971,-5.2993,-5.2982,-5.3092,-5.3127,-5.3207,-5.3226,-5.325,-5.3265,-5.3246,-5.3326,-5.3333,-5.334,-5.3363,-5.3372,-5.3262,-5.3261,-5.3261,-5.3261,0,-5.2703,-5.2759,-5.2798,-5.2863,-5.2902,-5.2957,-5.299,-5.3026,-5.3037,-5.3062,-5.3132,-5.3174,-5.3232,-5.3253,-5.3264,-5.3335,-5.3327,-5.3321,-5.3299,-5.3349,-5.3372,-5.3381,-5.3263,-5.3263,-5.3263,-5.3262,0,0,-5.2767,-5.2847,-5.286,-5.289,-5.2951,-5.2994,-5.305,-5.3107,-5.3136,-5.3183,-5.3228,-5.3303,-5.3298,-5.3331,-5.3347,-5.3381,-5.3435,-5.3371,-5.3372,-5.3378,-5.3513,-5.3514,-5.3524,-5.3438,-5.344,-5.3441,-5.3507,0,-5.2833,-5.2933,-5.2958,-5.3043,-5.3093,-5.3105,-5.3154,-5.3196,-5.3221,-5.3266,-5.3295,-5.3346,-5.3337,-5.3356,-5.3391,-5.3421,-5.3462,-5.3417,-5.3478,-5.348,-5.3461,-5.3537,-5.3539,-5.3599,-5.3516,-5.3518,-5.3519,0,-5.2923,-5.2972,-5.3062,-5.3116,-5.3138,-5.3181,-5.3235,-5.328,-5.3327,-5.3343,-5.3381,-5.3393,-5.345,-5.3428,-5.3505,-5.3474,-5.3501,-5.352,-5.3523,-5.3526,-5.35,-5.3539,-5.3619,-5.3627,-5.3534,-5.3532,-5.3531,0,-5.2956,-5.3045,-5.311,-5.3135,-5.3201,-5.323,-5.3259,-5.3305,-5.3338,-5.3385,-5.3406,-5.346,-5.3488,-5.3528,-5.3554,-5.3536,-5.3629,-5.3609,-5.3641,-5.364,-5.3657,-5.3655,-5.3739,-5.368,-5.368,-5.368,-5.368,0,-5.3026,-5.308,-5.3126,-5.3165,-5.3225,-5.3254,-5.3312,-5.3341,-5.3382,-5.3426,-5.3441,-5.3481,-5.3514,-5.3559,-5.358,-5.3639,-5.3653,-5.3666,-5.367,-5.3663,-5.3661,-5.3678,-5.3673,-5.3682,-5.3682,-5.3681,-5.3681,0,-5.3072,-5.3105,-5.3176,-5.3233,-5.3248,-5.329,-5.3337,-5.3375,-5.3402,-5.3458,-5.3472,-5.3513,-5.3567,-5.3598,-5.3665,-5.3679,-5.3744,-5.3748,-5.3728,-5.3729,-5.3759,-5.3754,-5.3854,-5.3868,-5.3802,-5.3803,-5.3803,0,-5.3112,-5.3154,-5.3215,-5.3246,-5.3275,-5.3325,-5.3359,-5.3389,-5.3423,-5.348,-5.3511,-5.3566,-5.3611,-5.3696,-5.3731,-5.3782,-5.3785,-5.3817,-5.3793,-5.3784,-5.3782,-5.3778,-5.3781,-5.382,-5.3821,-5.3821,-5.3821,0,-5.318,-5.3194,-5.3243,-5.3297,-5.3337,-5.3381,-5.3424,-5.3449,-5.3485,-5.3523,-5.3578,-5.3613,-5.3683,-5.3736,-5.379,-5.3818,-5.3825,-5.3829,-5.3839,-5.383,-5.3816,-5.3821,-5.3736,-5.3826,-5.3826,-5.3825,-5.3825,-5.3825,-5.3222,-5.3259,-5.3308,-5.3361,-5.3397,-5.3437,-5.3475,-5.3507,-5.3554,-5.3613,-5.3628,-5.3686,-5.3731,-5.3805,-5.3835,-5.3879,-5.3873,-5.3888,-5.3891,-5.3894,-5.3893,-5.3811,-5.389,-5.389,-5.389,-5.389,-5.389,0,-5.3288,-5.332,-5.3369,-5.3429,-5.347,-5.3476,-5.3524,-5.3558,-5.3609,-5.3652,-5.3696,-5.3759,-5.3811,-5.3851,-5.3903,-5.3931,-5.3936,-5.3944,-5.394,-5.3946,-5.3897,-5.3882,-5.3939,-5.3939,-5.3939,-5.3939,-5.3939,-5.3939,-5.3326,-5.3388,-5.3409,-5.3488,-5.352,-5.3577,-5.3604,-5.364,-5.3675,-5.3744,-5.3788,-5.3814,-5.3855,-5.3911,-5.3959,-5.3969,-5.3986,-5.3993,-5.4004,-5.3956,-5.395,-5.3945,-5.3931,-5.3998,-5.3998,-5.4049,-5.405,-5.405]},{"header":{"parameterUnit":"m.s-1","parameterCategory":1,"la1":30.2991,"la2":30.254,"lo1":-89.0895,"lo2":-89.0444,"dy":0.0017,"dx":0.0017,"nx":28,"ny":28,"refTime":"2024-04-07T21:00:00:Z","depth":0,"parameterNumber":3,"parameterNumberName":"V-component_of_WINDS"},"data":[0,0,0,0,0,0,0,0,0,0,0,0,0,0,0,0,0,0,0,0,0,0,0,0,0,0,0,0,0,0,0,0,0,0,0,0,0,0,0,0,0,0,0,0,0,0,0,0,0,0,0,0,0,0,0,0,0,0,4.3284,4.3285,0,4.3346,4.3347,4.3347,4.3343,4.3342,4.3341,4.334,4.3398,4.34,4.3402,0,0,0,0,0,0,0,0,0,0,0,0,0,4.3159,4.3162,4.3284,4.3285,4.3286,4.3346,4.3347,4.3347,4.3343,4.3342,4.3341,4.3339,4.3397,4.34,4.3402,0,0,0,0,0,0,0,0,0,0,0,0,0,4.3216,4.3162,4.3284,4.3291,4.3292,4.3346,4.3347,4.3348,4.3343,4.3342,4.334,4.3339,4.3396,4.3399,4.3403,4.3452,0,0,4.3414,4.3415,0,0,0,0,0,0,0,0,4.3213,4.3221,4.3289,4.3291,4.3292,4.3335,4.3324,4.3382,4.3343,4.3323,4.334,4.3338,4.3378,4.3383,4.3397,4.3455,4.3457,4.3414,4.3416,4.3418,4.3419,0,0,0,0,0,0,0,4.3209,4.3218,4.3308,4.329,4.3292,4.329,4.3296,4.3335,4.3357,4.3325,4.3325,4.3333,4.3378,4.3393,4.3398,4.3458,4.3414,4.3417,4.3419,4.3421,4.3562,4.3563,0,0,0,0,0,0,4.3204,4.3215,4.3307,4.331,4.3249,4.3293,4.33,4.3323,4.3357,4.3361,4.3334,4.3332,4.3388,4.3394,4.34,4.3462,4.3418,4.3421,4.3423,4.356,4.3562,4.3564,0,0,0,0,0,0,4.3202,4.3213,4.3304,4.3263,4.3274,4.3297,4.3322,4.3325,4.334,4.3363,4.3367,4.3346,4.3387,4.3395,4.344,4.3464,4.3423,4.3426,4.3558,4.3561,4.3563,4.3585,0,0,0,0,0,0,4.3198,4.3212,4.3231,4.3263,4.3277,4.3344,4.3323,4.3327,4.3347,4.3345,4.3375,4.3379,4.3387,4.3435,4.3444,4.3468,4.3429,4.3556,4.3559,4.3562,4.3582,4.3588,4.3593,0,0,0,0,0,4.3194,4.3233,4.3232,4.3243,4.3302,4.3345,4.3353,4.3362,4.3349,4.3368,4.3384,4.3378,4.346,4.344,4.3449,4.3475,4.3555,4.3558,4.3562,4.358,4.3587,4.3592,0,0,0,0,0,0,4.3201,4.3237,4.3237,4.3288,4.3314,4.3345,4.337,4.3369,4.3398,4.3395,4.3404,4.3411,4.3457,4.347,4.3447,4.3526,4.3505,4.3511,4.3516,4.3522,4.3527,4.3524,4.3432,0,0,0,0,0,4.3209,4.3243,4.3272,4.3314,4.3328,4.3347,4.3366,4.3371,4.3398,4.3408,4.3426,4.3451,4.3483,4.3503,4.3533,4.3584,4.3591,4.3607,4.3612,4.3616,4.3621,4.3651,4.3659,4.3576,4.3576,4.3576,0,0,4.3224,4.3249,4.3269,4.3317,4.3337,4.3372,4.3356,4.3392,4.3417,4.3413,4.3458,4.3472,4.35,4.3549,4.3572,4.3562,4.3646,4.3621,4.3624,4.3627,4.3656,4.3664,4.3671,4.3578,4.3578,4.3577,0,0,4.3272,4.3293,4.3332,4.3354,4.3387,4.3399,4.3409,4.344,4.3451,4.3496,4.3494,4.3524,4.3577,4.3598,4.3616,4.3674,4.367,4.3683,4.371,4.3739,4.3746,4.3752,4.3774,4.3782,4.3688,4.3688,4.3688,0,4.3287,4.334,4.3352,4.339,4.3411,4.3411,4.3451,4.3471,4.3511,4.3525,4.3514,4.3583,4.3602,4.3657,4.3671,4.3685,4.3696,4.368,4.3744,4.375,4.3756,4.3778,4.3786,4.3689,4.3689,4.3689,4.3689,0,4.3358,4.3395,4.3423,4.3465,4.3489,4.3527,4.3544,4.3567,4.357,4.3584,4.3631,4.3654,4.369,4.3703,4.3705,4.3759,4.3752,4.3743,4.3722,4.3765,4.3786,4.3794,4.3691,4.3691,4.369,4.369,0,0,4.3411,4.3461,4.3471,4.3491,4.3528,4.3556,4.3595,4.3632,4.3652,4.368,4.3713,4.3759,4.3752,4.3772,4.3777,4.3802,4.3849,4.379,4.3791,4.3802,4.3911,4.392,4.3929,4.3847,4.3848,4.385,4.391,0,4.3463,4.3535,4.3547,4.3608,4.3644,4.3645,4.3679,4.3705,4.3719,4.3749,4.3764,4.3798,4.3784,4.3797,4.3822,4.3838,4.3872,4.3834,4.3878,4.3879,4.3872,4.3939,4.3948,4.4003,4.3918,4.3919,4.392,0,4.3534,4.3567,4.3633,4.3668,4.3683,4.3713,4.375,4.3779,4.3809,4.3817,4.3841,4.3844,4.3884,4.3862,4.3917,4.3891,4.3909,4.392,4.3923,4.3928,4.3903,4.3948,4.4021,4.403,4.3932,4.3931,4.393,0,4.3569,4.3629,4.3677,4.3694,4.3735,4.3757,4.3774,4.3803,4.3825,4.3856,4.3871,4.3906,4.3925,4.3951,4.3963,4.3945,4.4018,4.3996,4.4026,4.4026,4.4042,4.4042,4.4121,4.4052,4.4052,4.4052,4.4051,0,4.3627,4.3668,4.3694,4.3723,4.3769,4.3783,4.3827,4.3844,4.387,4.3903,4.3904,4.3934,4.3948,4.398,4.3989,4.4035,4.4042,4.405,4.4053,4.4051,4.4051,4.4064,4.4062,4.4054,4.4053,4.4053,4.4052,0,4.3674,4.3693,4.3746,4.3781,4.3791,4.3824,4.3854,4.3882,4.3897,4.3938,4.3948,4.397,4.4009,4.4023,4.4068,4.4075,4.4128,4.4126,4.4119,4.412,4.415,4.4148,4.4243,4.4256,4.4176,4.4177,4.4178,0,4.3711,4.3743,4.3783,4.3806,4.3826,4.3862,4.3886,4.39,4.3925,4.3962,4.3987,4.4025,4.4057,4.4118,4.4137,4.4172,4.4172,4.4203,4.4177,4.4176,4.4175,4.4174,4.4178,4.4208,4.4209,4.421,4.421,0,4.3775,4.3783,4.3819,4.3858,4.3888,4.3918,4.3948,4.3967,4.3986,4.4013,4.4053,4.4078,4.4127,4.4165,4.4202,4.4219,4.4218,4.4218,4.4227,4.4227,4.4223,4.4228,4.4134,4.4216,4.4215,4.4215,4.4215,4.4214,4.3819,4.3849,4.3883,4.3923,4.3947,4.3976,4.4006,4.4025,4.406,4.4102,4.4107,4.4151,4.4181,4.4231,4.4249,4.4283,4.4275,4.4288,4.4291,4.4295,4.4298,4.4216,4.429,4.4289,4.4289,4.4289,4.4289,0,4.3885,4.3908,4.3945,4.3989,4.402,4.4018,4.4052,4.4078,4.4117,4.4146,4.4178,4.4226,4.4263,4.4287,4.4325,4.4347,4.4348,4.4357,4.4356,4.4361,4.4302,4.4292,4.4356,4.4356,4.4356,4.4356,4.4356,4.4356,4.3924,4.3975,4.3988,4.4051,4.4072,4.4117,4.4137,4.4163,4.4187,4.424,4.4273,4.4288,4.4315,4.4355,4.439,4.4396,4.441,4.442,4.4426,4.4371,4.4364,4.4358,4.4348,4.4423,4.4423,4.4481,4.4482,4.4482]}]]